Location: Camp Crooked Creek
(37.9149°N, 85.6607°W)
Time: 10:00:21
(UTC-04:00)

Lacrosse 4 - Visible Passes

Search period start: 23 August 2017 00:00
Search period end: 02 September 2017 00:00
Orbit: 673 x 680 km, 68.0° (Epoch: 25 February)

Date Brightness Start Highest point End Pass type
(mag) Time Alt. Az. Time Alt. Az. Time Alt. Az.
23 Aug 3.9 03:35:26 21° N 03:35:26 21° N 03:37:18 10° N visible
24 Aug 4.7 02:31:17 13° NNE 02:31:17 13° NNE 02:31:47 10° NNE visible
24 Aug 4.2 04:09:34 13° NNW 04:09:34 13° NNW 04:10:55 10° NNW visible
25 Aug 4.4 03:05:23 16° N 03:05:23 16° N 03:06:31 10° NNE visible
26 Aug 4.4 03:39:28 12° NNW 03:39:28 12° NNW 03:40:12 10° NNW visible
27 Aug 4.7 02:35:14 12° N 02:35:14 12° N 02:35:42 10° NNE visible
28 Aug 4.7 03:09:16 11° NNW 03:09:16 11° NNW 03:09:27 10° NNW visible
